Location: Newark
(7.0858°N, 171.3717°E)
Time: 09:07:26
(UTC+00:00)

A-11 Canister half - Pass Details

Date: 03 August 2021
Orbit: 1526 x 1683 km, 47.3° (Epoch: 23 September)

Event Time Altitude Azimuth Distance (km) Brightness Sun altitude
Rises 10:13:34 0° 276° (W) 4,714 12.1 -46.2°
Reaches altitude 10° 10:20:46 10° 239° (WSW) 3,701 11.1 -47.6°
Maximum altitude 10:22:13 10° 229° (SW) 3,664 11.0 -47.9°
Enters shadow 10:22:16 10° 229° (SW) 3,664 11.0 -47.9°
